"Pseudo-MPEC" for ZTF02xK

Created 2019 Apr 22 11:07:10 UT using Find_Orb

Click here for an explanation of pseudo-MPECs

 
 Astrometry: 
     ZTF02xK  C2019 04 11.36288115 50 35.28 +37 00 01.7    ~4BJm 16.06RUNEOCPI41
     ZTF02xK  C2019 04 11.36322815 50 29.71 +36 59 01.6    ~4BJm 16.06RUNEOCPI41
     ZTF02xK  C2019 04 11.36425915 50 13.46 +36 56 02.1    ~4BK3 16.00RUNEOCPI41
     ZTF02xK  C2019 04 11.36460515 50 07.87 +36 55 01.2    ~4BK3 16.00RUNEOCPI41
     ZTF02xK  C2019 04 11.38912715 43 34.40 +35 40 54.0    ~4BJ3 16.31RUNEOCPI41
     ZTF02xK  C2019 04 11.38947415 43 28.67 +35 39 48.2    ~4BJ3 16.31RUNEOCPI41
     ZTF02xK  C2019 04 11.39935215 40 47.66 +35 08 20.6    ~4BJ3 16.52RUNEOCPI41
     ZTF02xK  C2019 04 11.39969915 40 42.00 +35 07 13.2    ~4BJ3 16.52RUNEOCPI41

Station data:
(I41) Palomar Mountain--ZTF  (N33.357340 W116.859780)  US/California. 1.2-m
   f/2.44 Oschin Schmidt + CCD.

Orbital elements:  ZTF02xK
   Perihelion 2019 Feb 22.990380 +/- 29.4 TT = 23:46:08 (JD 2458537.490380)
Epoch 2019 Apr 11.0 TT = JDT 2458584.5   Earth MOID: 0.0057   Ma: 0.0359
M  32.80230519 +/- 39               (J2000 ecliptic)          AutoNEOCP
n   0.69777856 +/- 0.22             Peri.  122.46166 +/- 33
a   1.25889922 +/- 0.257            Node    21.45308 +/- 0.016
e   0.2804100 +/- 0.115             Incl.   38.76205 +/- 12
P   1.41/515.91d           H 25.3   G  0.15   U 11.7  
q 0.90589128 +/- 0.037    Q 1.61190716 +/- 0.385
From 8 observations 2019 Apr. 11 (53.0 min); mean residual 0".37
Residuals in arcseconds: 
190411 I41  .39+  .17-    190411 I41  .61-  .23-    190411 I41  .16-  .02+    
190411 I41  .49-  .08+    190411 I41  .59+  .22+    190411 I41  .11+  .05-    
190411 I41  .61+  .25+    190411 I41  .60-  .26-    

Ephemerides (geocentric):
Date (UTC) HH   RA              Dec         delta   r     elong  mag " sig PA
---- -- -- --  -------------   -----------  ------ ------ -----  --- ---- ---
2019 04 22 11  08 43 43.595   -53 41 58.46  .13173 1.0499 106.4 23.4 1040 125
2019 04 22 12  08 43 40.665   -53 42 05.61  .13224 1.0501 106.4 23.4 1040 125
2019 04 22 13  08 43 37.767   -53 42 12.69  .13274 1.0503 106.4 23.4 1039 125
2019 04 22 14  08 43 34.901   -53 42 19.71  .13325 1.0505 106.3 23.4 1039 125
2019 04 22 15  08 43 32.066   -53 42 26.67  .13376 1.0506 106.3 23.4 1038 125
2019 04 22 16  08 43 29.263   -53 42 33.57  .13427 1.0508 106.3 23.4 1038 125
2019 04 22 17  08 43 26.491   -53 42 40.40  .13478 1.0510 106.3 23.4 1038 125
2019 04 22 18  08 43 23.750   -53 42 47.17  .13529 1.0511 106.3 23.4 1037 125
2019 04 22 19  08 43 21.039   -53 42 53.89  .13580 1.0513 106.3 23.4 1037 125
2019 04 22 20  08 43 18.358   -53 43 00.54  .13630 1.0515 106.2 23.4 1036 125
2019 04 22 21  08 43 15.707   -53 43 07.14  .13681 1.0517 106.2 23.4 1036 125
2019 04 22 22  08 43 13.085   -53 43 13.68  .13732 1.0518 106.2 23.4 1035 125
2019 04 22 23  08 43 10.493   -53 43 20.16  .13783 1.0520 106.2 23.5 1035 125
2019 04 23 00  08 43 07.929   -53 43 26.59  .13834 1.0522 106.2 23.5 1034 125
2019 04 23 01  08 43 05.394   -53 43 32.96  .13884 1.0524 106.1 23.5 1034 125
2019 04 23 02  08 43 02.888   -53 43 39.28  .13935 1.0525 106.1 23.5 1033 125
2019 04 23 03  08 43 00.409   -53 43 45.54  .13986 1.0527 106.1 23.5 1033 125
2019 04 23 04  08 42 57.959   -53 43 51.75  .14037 1.0529 106.1 23.5 1033 126
2019 04 23 05  08 42 55.536   -53 43 57.91  .14088 1.0530 106.1 23.5 1032 126
2019 04 23 06  08 42 53.140   -53 44 04.02  .14138 1.0532 106.1 23.5 1032 126
2019 04 23 07  08 42 50.771   -53 44 10.07  .14189 1.0534 106.0 23.5 1031 126
2019 04 23 08  08 42 48.430   -53 44 16.08  .14240 1.0536 106.0 23.5 1031 126
2019 04 23 09  08 42 46.114   -53 44 22.04  .14291 1.0537 106.0 23.5 1030 126
2019 04 23 10  08 42 43.825   -53 44 27.94  .14342 1.0539 106.0 23.5 1030 126
2019 04 23 11  08 42 41.563   -53 44 33.80  .14392 1.0541 106.0 23.6 1029 126
2019 04 23 12  08 42 39.326   -53 44 39.61  .14443 1.0543 105.9 23.6 1029 126
2019 04 23 13  08 42 37.114   -53 44 45.38  .14494 1.0544 105.9 23.6 1029 126
2019 04 23 14  08 42 34.928   -53 44 51.09  .14545 1.0546 105.9 23.6 1028 126
2019 04 23 15  08 42 32.767   -53 44 56.76  .14595 1.0548 105.9 23.6 1028 126
2019 04 23 16  08 42 30.631   -53 45 02.39  .14646 1.0550 105.9 23.6 1027 126
2019 04 23 17  08 42 28.520   -53 45 07.97  .14697 1.0551 105.9 23.6 1027 126
2019 04 23 18  08 42 26.433   -53 45 13.51  .14748 1.0553 105.8 23.6 1026 126
2019 04 23 19  08 42 24.371   -53 45 19.00  .14798 1.0555 105.8 23.6 1026 126
2019 04 23 20  08 42 22.332   -53 45 24.45  .14849 1.0556 105.8 23.6 1026 126
2019 04 23 21  08 42 20.318   -53 45 29.86  .14900 1.0558 105.8 23.6 1025 126
2019 04 23 22  08 42 18.327   -53 45 35.22  .14951 1.0560 105.8 23.6 1025 126
2019 04 23 23  08 42 16.359   -53 45 40.55  .15001 1.0562 105.8 23.6 1024 126
2019 04 24 00  08 42 14.415   -53 45 45.83  .15052 1.0563 105.7 23.6 1024 126
2019 04 24 01  08 42 12.493   -53 45 51.07  .15103 1.0565 105.7 23.7 1023 126
2019 04 24 02  08 42 10.595   -53 45 56.27  .15153 1.0567 105.7 23.7 1023 126
2019 04 24 03  08 42 08.719   -53 46 01.44  .15204 1.0569 105.7 23.7 1023 126
2019 04 24 04  08 42 06.866   -53 46 06.56  .15255 1.0570 105.7 23.7 1022 126
2019 04 24 05  08 42 05.035   -53 46 11.65  .15305 1.0572 105.7 23.7 1022 126
2019 04 24 06  08 42 03.226   -53 46 16.69  .15356 1.0574 105.6 23.7 1021 126
2019 04 24 07  08 42 01.439   -53 46 21.70  .15407 1.0576 105.6 23.7 1021 126
2019 04 24 08  08 41 59.673   -53 46 26.68  .15457 1.0577 105.6 23.7 1021 126
2019 04 24 09  08 41 57.929   -53 46 31.61  .15508 1.0579 105.6 23.7 1020 126
2019 04 24 10  08 41 56.207   -53 46 36.51  .15559 1.0581 105.6 23.7 1020 126